Location: Charlottesville
(38.0290°N, 78.4770°W)
Time: 12:40:51
(UTC-05:00)

Vanguard 1 Rocket - All Passes

Search period start: 22 January 2018 00:00
Search period end: 01 February 2018 00:00
Orbit: 656 x 4222 km, 34.3° (Epoch: 21 January)

Date Brightness Start Highest point End Pass type
(mag) Time Alt. Az. Time Alt. Az. Time Alt. Az.
22 Jan - 03:50:32 10° SSW 04:05:46 27° SSE 04:15:33 10° E visible
22 Jan - 06:18:41 10° SW 06:33:48 51° SSE 06:41:39 10° E visible
22 Jan - 08:49:46 10° W 09:00:02 67° S 09:05:39 10° E daylight
22 Jan - 11:19:04 10° W 11:24:45 36° SSW 11:28:55 10° SE daylight
23 Jan - 02:39:34 10° S 02:52:42 19° SE 03:02:23 10° ESE visible
23 Jan - 05:04:33 10° SW 05:21:36 43° SSE 05:30:57 10° E visible
23 Jan - 07:35:35 10° WSW 07:48:45 66° S 07:55:28 10° E daylight
23 Jan - 10:06:17 10° W 10:14:13 55° SSW 10:19:04 10° ESE daylight
23 Jan - 12:35:36 10° WSW 12:38:07 14° SW 12:40:27 10° S daylight
24 Jan - 01:33:08 10° SSE 01:39:18 12° SE 01:44:47 10° SE visible
24 Jan - 03:51:04 10° SSW 04:08:53 34° SSE 04:19:40 10° E visible
24 Jan - 06:20:55 10° WSW 06:37:00 60° SSE 06:45:08 10° E visible
24 Jan - 08:52:44 10° W 09:03:19 67° S 09:09:02 10° ESE daylight
24 Jan - 11:22:27 10° W 11:27:50 28° SSW 11:31:49 10° SSE daylight
25 Jan - 02:38:52 10° SSW 02:55:44 26° SSE 03:07:20 10° E visible
25 Jan - 05:06:14 10° SW 05:24:45 51° SSE 05:34:31 10° E visible
25 Jan - 07:38:21 10° WSW 07:52:00 70° S 07:58:53 10° E daylight
25 Jan - 10:09:25 10° W 10:17:24 47° SSW 10:22:17 10° SE daylight
26 Jan - 01:29:00 10° S 01:42:18 18° SE 01:52:53 10° ESE visible
26 Jan - 03:52:07 10° SW 04:11:56 42° SSE 04:23:26 10° E visible
26 Jan - 06:23:20 10° WSW 06:40:11 67° S 06:48:34 10° E visible
26 Jan - 08:55:43 10° W 09:06:34 64° SSW 09:12:23 10° ESE daylight
26 Jan - 11:26:00 10° W 11:30:49 21° SW 11:34:29 10° SSE daylight
27 Jan - 02:39:04 10° SSW 02:58:40 33° SSE 03:11:34 10° E visible
27 Jan - 05:08:13 10° SW 05:27:50 59° SSE 05:38:00 10° E visible
27 Jan - 07:41:10 10° W 07:55:14 72° S 08:02:17 10° E daylight
27 Jan - 10:12:34 10° W 10:20:30 40° SSW 10:25:23 10° SE daylight
28 Jan - 01:27:46 10° S 01:45:08 24° SE 01:58:17 10° E visible
28 Jan - 03:53:33 10° SW 04:14:56 50° SSE 04:27:01 10° E visible
28 Jan - 06:25:55 10° WSW 06:43:22 72° S 06:51:58 10° E visible
28 Jan - 08:58:42 10° W 09:09:45 59° SSW 09:15:41 10° ESE daylight
28 Jan - 11:29:54 10° WSW 11:33:40 16° SW 11:36:42 10° S daylight
29 Jan - 00:19:43 10° SSE 00:31:32 15° SE 00:41:50 10° ESE visible
29 Jan - 02:39:52 10° SSW 03:01:32 41° SSE 03:15:24 10° E visible
29 Jan - 05:10:26 10° WSW 05:30:55 66° SSE 05:41:24 10° E visible
29 Jan - 07:44:01 10° W 07:58:26 71° S 08:05:38 10° ESE daylight
29 Jan - 10:15:48 10° W 10:23:27 32° SW 10:28:19 10° SSE daylight
30 Jan - 01:27:39 10° SSW 01:47:52 31° SE 02:02:43 10° E visible
30 Jan - 03:55:19 10° SW 04:17:53 58° SSE 04:30:28 10° E visible
30 Jan - 06:28:36 10° W 06:46:32 75° S 06:55:20 10° E visible
30 Jan - 09:01:41 10° W 09:12:50 52° SSW 09:18:53 10° SE daylight
30 Jan - 11:34:58 10° WSW 11:36:23 11° SW 11:37:43 10° SSW daylight
31 Jan - 00:17:39 10° S 00:34:09 21° SE 00:48:04 10° E visible
31 Jan - 02:41:07 10° SW 03:04:20 49° SSE 03:18:59 10° E visible
31 Jan - 05:12:50 10° WSW 05:33:59 72° S 05:44:46 10° E visible
31 Jan - 07:46:53 10° W 08:01:37 68° SSW 08:08:58 10° ESE daylight
31 Jan - 10:19:10 10° W 10:26:17 25° SW 10:31:00 10° SSE daylight
31 Jan - 23:13:04 10° SSE 23:20:36 12° SE 23:27:48 10° ESE visible
